Theta_e
330 331 332 332 332 331 332 330 330 331 336 339 342 343 344 348 351 354 349 349 351 352 351 349 343 343 343 343 341 338 338 340
330 331 331 333 332 332 331 334 335 332 331 332 337 337 344 346 351 354 349 349 350 350 349 344 342 342 342 342 341 339 338 338
332 332 331 332 333 334 333 334 334 334 332 335 334 335 338 346 350 353 348 346 349 349 348 342 341 340 340 341 340 338 338 336
331 332 333 332 332 334 336 341 335 334 332 335 334 336 337 340 349 350 351 343 342 347 347 341 341 338 338 338 337 336 336 335
333 334 333 334 334 334 334 335 336 335 334 338 337 340 341 341 346 351 352 346 342 345 344 341 340 338 337 337 333 333 334 333
330 332 331 334 334 334 334 336 336 336 335 334 337 338 338 342 346 348 351 348 345 344 343 341 340 339 339 336 332 332 332 332
331 330 331 332 334 334 335 334 336 334 336 337 336 336 338 337 339 346 347 348 347 345 343 342 341 340 338 336 334 334 333 333
333 332 331 331 332 334 334 334 336 335 334 331 331 332 332 333 337 342 346 346 346 345 343 342 341 339 336 335 333 335 335 334
336 335 334 336 335 335 335 336 334 333 333 331 331 332 333 337 338 339 342 345 344 344 343 341 339 334 333 333 332 335 336 334
337 339 340 335 335 334 335 334 333 332 331 330 332 335 338 338 338 338 339 343 343 342 341 339 334 331 332 331 333 335 335 335
339 339 335 336 335 334 334 335 334 334 330 329 333 338 338 337 337 339 340 342 342 340 339 335 332 331 332 333 333 333 333 334
337 336 337 334 334 334 334 336 331 331 330 331 335 335 339 341 338 339 339 340 340 338 335 334 333 332 333 334 334 333 332 332
335 337 333 336 333 333 335 334 332 330 330 332 337 336 342 340 339 338 338 339 338 336 334 333 335 334 333 334 334 333 332 330
335 337 338 333 332 334 340 334 333 333 333 335 338 341 340 340 340 339 339 337 336 335 334 335 337 338 337 337 335 334 332 333
336 338 337 333 335 333 334 336 337 338 338 338 339 339 339 340 340 339 337 336 335 335 337 338 338 340 339 338 338 336 339 336
334 335 333 330 331 332 333 335 335 335 335 337 340 337 338 339 339 338 337 336 336 336 336 336 336 337 338 339 340 336 334 334
332 333 330 330 331 330 331 331 332 332 334 337 337 336 335 334 334 334 334 333 333 334 334 335 336 337 336 335 333 333 333 332
330 327 329 329 325 327 329 331 331 334 334 334 333 332 330 332 332 333 334 334 334 334 333 334 333 333 333 333 333 333 332 330
327 323 323 323 324 325 326 328 329 330 330 329 329 329 329 332 333 331 333 333 334 333 332 332 332 332 332 332 331 331 331 329
Wind_Speed
14 8 10 11 10 5 1 3 8 7 6 9 8 8 9 11 13 21 19 19 20 22 21 20 18 15 13 11 9 6 4 4
8 9 4 8 11 9 9 6 9 6 6 3 5 7 8 13 15 18 19 20 19 21 21 21 19 16 14 12 10 7 5 6
10 12 15 8 11 8 5 5 7 6 3 6 2 2 4 9 14 17 21 20 19 20 22 21 19 17 15 12 11 8 6 7
16 5 6 15 18 16 10 11 6 7 8 4 4 3 3 4 11 16 20 20 18 22 24 22 21 18 15 13 12 9 7 7
12 9 5 11 11 13 16 10 7 8 3 6 3 4 4 7 10 13 17 19 19 21 24 24 22 18 15 14 12 9 7 8
16 18 14 18 15 17 16 13 11 11 13 10 5 7 7 8 10 13 16 19 19 19 22 24 21 19 16 14 11 9 9 9
20 17 14 15 18 19 20 17 15 12 7 11 8 11 10 10 8 14 17 20 22 22 19 23 21 18 15 14 11 11 11 11
15 12 15 14 17 17 18 12 9 9 11 8 7 11 13 14 12 13 17 19 20 20 21 22 21 19 16 14 13 13 13 12
14 11 10 15 14 16 12 10 10 9 8 10 13 13 14 14 13 12 14 16 19 21 21 22 21 19 17 15 14 14 13 12
6 8 13 2 1 12 13 12 10 7 8 10 11 12 13 12 12 11 12 15 17 19 22 21 20 19 17 16 16 15 14 13
8 13 13 8 5 7 11 12 9 8 9 10 7 10 8 2 3 4 7 12 18 22 22 22 20 20 18 18 18 16 15 14
8 17 20 13 9 8 2 9 10 4 8 8 4 9 7 6 5 7 9 14 17 20 21 19 20 20 21 21 20 19 16 14
14 12 11 9 9 7 9 3 7 7 7 6 9 5 3 6 7 8 11 15 18 20 19 20 18 20 22 23 22 21 16 13
11 11 13 9 7 10 5 6 5 9 9 10 11 6 6 7 9 10 11 16 18 17 17 16 14 16 21 21 23 18 14 12
3 2 6 4 3 6 7 9 12 10 12 11 12 10 9 10 10 10 13 13 13 12 12 10 9 11 15 18 17 16 12 11
2 6 2 4 5 7 8 11 13 14 14 11 12 8 7 8 8 8 9 8 6 5 6 7 8 10 11 10 7 10 9 9
6 3 5 3 8 11 11 10 10 10 11 11 11 10 10 9 8 7 7 5 3 1 2 2 1 4 5 6 7 6 4 5
4 5 4 5 12 13 10 10 6 4 6 8 10 10 9 8 7 6 6 4 3 2 2 3 4 4 3 2 2 2 4 7
2 6 8 12 11 8 9 11 6 6 7 9 9 8 7 7 6 7 6 5 5 4 4 4 4 4 3 2 1 0 3 5
Wind_Direction
184 160 194 173 214 302 306 259 270 236 192 267 210 230 216 223 219 196 192 190 189 183 184 180 177 176 181 184 193 201 222 234
155 157 165 235 184 197 218 259 254 180 255 241 180 230 217 219 211 192 191 193 190 186 186 183 180 177 185 194 202 211 231 255
167 208 210 182 206 230 305 317 298 249 190 117 323 162 206 212 203 195 192 196 194 189 187 186 182 182 190 201 210 222 238 260
211 135 279 221 214 198 224 184 229 307 301 113 180 175 215 217 196 198 198 196 196 187 188 186 185 186 196 208 221 236 250 254
189 188 179 222 217 227 226 247 270 269 272 122 170 220 239 234 201 198 198 195 191 189 188 188 187 188 201 212 229 241 243 252
218 222 217 209 223 225 234 233 241 217 273 283 299 273 251 246 241 209 204 196 194 194 188 189 186 187 199 214 230 236 249 257
231 250 240 228 214 219 228 241 259 286 317 293 302 295 296 282 251 217 206 203 198 196 186 186 183 186 197 214 221 237 246 252
230 227 229 235 236 212 225 234 246 262 268 301 292 280 276 268 256 231 217 211 205 196 186 186 183 186 199 212 221 230 240 251
218 195 212 229 202 205 202 215 233 242 292 324 302 293 286 283 267 246 226 211 201 196 186 184 184 186 202 211 218 228 235 247
228 169 218 192 259 227 227 219 222 270 296 301 298 298 291 271 259 256 227 202 197 189 181 184 186 193 206 212 215 224 232 240
231 222 237 149 184 190 204 217 232 262 290 285 302 292 262 240 208 205 189 189 185 183 181 184 188 202 207 212 217 222 233 242
209 251 248 257 174 180 168 249 258 227 286 275 267 261 119 129 141 148 159 167 170 179 183 185 200 207 211 215 216 224 233 246
234 244 255 109 129 158 217 295 6 314 286 250 230 291 100 141 150 150 158 164 175 180 189 200 207 215 218 221 220 225 232 241
243 258 235 132 142 235 11 340 352 312 288 243 228 210 178 169 162 164 168 174 182 187 201 213 219 222 227 225 225 221 231 235
275 35 85 85 344 321 312 293 292 298 292 271 248 225 186 167 161 159 166 175 185 206 219 232 233 234 239 241 237 227 212 224
255 132 44 316 318 323 319 293 285 272 262 256 236 204 172 147 144 145 149 164 179 209 246 264 255 242 241 236 199 209 218 235
250 236 311 133 26 351 327 311 292 271 251 221 196 174 161 138 136 126 115 97 74 351 276 264 215 173 188 198 207 222 237 245
325 50 343 350 343 336 325 323 306 251 195 174 171 158 149 147 124 116 105 96 89 90 128 137 132 135 135 143 188 234 254 254
56 341 329 310 311 359 341 330 292 240 198 175 160 156 155 132 116 107 111 128 123 113 123 143 144 121 85 65 48 314 285 288